DW8004 Weather Reports


time (UTC)temp
F
wind
direction
speed
knots
gust
knots
rain 1hr
in
rain 24hr
in
rain mn
in
humidity
%
barometer
mb
20260505101518 48 78 0.0 0.0 0.00 0.00 0.00 82 1007.2
20260505100139 49 78 0.0 0.0 0.00 0.00 0.00 80 1007.0
20260505094611 49 78 0.0 0.0 0.00 0.00 0.00 80 1007.1
20260505093048 50 78 0.0 0.0 0.00 0.00 0.00 79 1007.1
20260505091548 50 78 0.0 0.0 0.00 0.00 0.00 77 1006.9
20260505090138 51 78 0.0 0.0 0.00 0.00 0.00 75 1007.0
20260505084551 52 78 0.0 0.0 0.00 0.00 0.00 72 1007.3
20260505083041 54 78 0.0 0.0 0.00 0.00 0.00 67 1007.3
20260505081524 56 65 0.0 0.0 0.00 0.00 0.00 63 1007.2
20260505080107 56 66 0.0 0.0 0.00 0.00 0.00 62 1007.2
20260505074504 57 73 0.0 0.0 0.00 0.00 0.00 61 1007.1
20260505073100 57 51 0.0 0.0 0.00 0.00 0.00 60 1007.1
20260505071538 57 81 0.0 0.0 0.00 0.00 0.00 59 1007.1
20260505070018 57 282 0.0 0.0 0.00 0.00 0.00 58 1007.3
20260505064537 58 30 0.0 0.0 0.00 0.00 0.00 58 1007.3
20260505063047 58 225 0.0 0.0 0.00 0.00 0.00 57 1007.3
20260505061529 58 23 0.0 0.0 0.00 0.00 0.00 57 1007.4
20260505060050 58 261 0.0 0.0 0.00 0.00 0.00 57 1007.6
20260505054537 57 300 0.0 0.0 0.00 0.00 0.00 58 1007.8
20260505053040 57 46 0.0 0.0 0.00 0.00 0.00 60 1007.7
20260505051505 57 13 0.0 0.0 0.00 0.00 0.00 60 1007.7
20260505041551 56 17 0.0 0.0 0.00 0.00 0.00 61 1008.0
20260505040145 54 74 0.0 0.0 0.00 0.00 0.00 64 1008.0
20260505034608 52 144 0.0 0.0 0.00 0.00 0.00 70 1008.0
20260505033021 50 121 0.0 0.0 0.00 0.00 0.00 72 1007.9
20260505031523 50 57 0.0 0.0 0.00 0.00 0.00 70 1007.9
20260505030044 50 99 0.0 0.0 0.00 0.00 0.00 73 1007.9
20260505024536 47 85 0.0 0.0 0.00 0.00 0.00 75 1008.0
20260505023033 48 74 0.0 0.0 0.00 0.00 0.00 76 1008.1
20260505021539 49 69 0.0 0.0 0.00 0.00 0.00 74 1008.0
20260505020025 50 210 0.0 0.0 0.00 0.00 0.00 72 1007.9
20260505014512 51 210 0.0 0.0 0.00 0.00 0.00 70 1007.8
20260505013005 51 210 0.0 0.0 0.00 0.00 0.00 68 1007.8
20260505011551 52 237 0.0 0.0 0.00 0.00 0.00 67 1007.6
20260505010055 53 237 0.0 0.0 0.00 0.00 0.00 65 1007.6
20260505004530 54 237 0.0 0.0 0.00 0.00 0.00 66 1007.5
20260505003015 55 291 0.0 0.0 0.00 0.00 0.00 61 1007.2
20260505001633 57 315 0.0 0.0 0.00 0.00 0.00 60 1007.1
20260505000035 58 315 0.0 0.0 0.00 0.00 0.00 56 1006.9
20260504234517 60 315 0.0 0.0 0.00 0.00 0.00 52 1006.6
20260504233003 62 258 0.0 0.0 0.00 0.00 0.00 47 1006.4
20260504231507 62 277 0.0 0.0 0.00 0.00 0.00 48 1006.1
20260504230058 62 57 0.0 0.0 0.00 0.00 0.00 45 1006.0
20260504224606 63 304 0.0 0.0 0.00 0.00 0.00 47 1005.9
20260504223044 63 169 0.0 0.0 0.00 0.00 0.00 46 1005.9
20260504221555 65 161 0.0 0.0 0.00 0.00 0.00 44 1005.7
20260504220058 65 217 0.0 0.0 0.00 0.00 0.00 43 1005.8
20260504214601 65 211 0.0 0.0 0.00 0.00 0.00 44 1005.9
20260504213100 64 209 0.0 0.0 0.00 0.00 0.00 44 1006.0
20260504211508 63 325 0.0 0.0 0.00 0.00 0.00 45 1006.1
20260504210055 63 229 0.0 0.0 0.00 0.00 0.00 45 1006.1
20260504204552 62 305 0.0 0.0 0.00 0.00 0.00 46 1006.0
20260504203039 64 300 0.0 0.0 0.00 0.00 0.00 45 1006.2
20260504201531 64 233 0.0 0.0 0.00 0.00 0.00 45 1006.4
20260504200015 64 323 0.0 0.0 0.00 0.00 0.00 45 1006.4
20260504194506 64 218 0.0 0.0 0.00 0.00 0.00 44 1006.5
20260504193037 64 309 0.0 0.0 0.00 0.00 0.00 44 1006.6
20260504191506 63 225 0.0 0.0 0.00 0.00 0.00 44 1006.5
20260504190003 63 254 0.0 0.0 0.00 0.00 0.00 45 1006.7
20260504184522 63 257 0.0 0.0 0.00 0.00 0.00 44 1006.6
20260504183018 63 226 0.0 0.0 0.00 0.00 0.00 45 1006.8
20260504181503 63 226 0.0 0.0 0.00 0.00 0.00 46 1006.9
20260504180105 62 319 0.0 0.0 0.00 0.00 0.00 47 1007.0
20260504174550 61 328 0.0 0.0 0.00 0.00 0.00 47 1007.2
20260504173048 60 315 0.0 0.0 0.00 0.00 0.00 49 1007.5
20260504171631 59 219 0.0 0.0 0.00 0.00 0.00 48 1007.8
20260504170104 59 304 0.0 0.0 0.00 0.00 0.00 49 1007.5
20260504140107 54 294 0.0 0.0 0.00 0.00 0.00 52 1008.7